GW2871 Weather Reports


time (UTC)temp
C
wind
direction
speed
KPH
gust
KPH
rain 1hr
cm
rain 24hr
cm
rain mn
cm
humidity
%
barometer
mb
20260506202051 25 72 4.8 16.1 0.00 0.00 0.00 46 1018.2
20260506201552 25 49 3.2 16.1 0.00 0.00 0.00 46 1018.3
20260506201047 25 37 4.8 17.7 0.00 0.00 0.00 46 1018.3
20260506200551 25 36 6.4 17.7 0.00 0.00 0.00 46 1018.4
20260506200058 25 360 4.8 11.3 0.00 0.00 0.00 47 1018.3
20260506195555 25 0 3.2 11.3 0.00 0.00 0.00 47 1018.4
20260506195051 25 126 0.0 8.0 0.00 0.00 0.00 45 1018.4
20260506194553 25 0 3.2 11.3 0.00 0.00 0.00 47 1018.5
20260506194051 24 0 1.6 11.3 0.00 0.00 0.00 48 1018.4
20260506193547 24 36 3.2 14.5 0.00 0.00 0.00 48 1018.4
20260506193052 24 46 4.8 14.5 0.00 0.00 0.00 47 1018.5
20260506192554 24 58 4.8 14.5 0.00 0.00 0.00 47 1018.6
20260506192052 24 0 4.8 11.3 0.00 0.00 0.00 49 1018.7
20260506191554 23 301 3.2 8.0 0.00 0.00 0.00 49 1018.6
20260506191048 23 16 0.0 6.4 0.00 0.00 0.00 50 1018.8
20260506190551 23 11 1.6 6.4 0.00 0.00 0.00 50 1018.7
20260506190051 23 127 0.0 14.5 0.00 0.00 0.00 51 1018.9
20260506185551 23 277 6.4 14.5 0.00 0.00 0.00 50 1019.0
20260506185048 23 0 4.8 11.3 0.00 0.00 0.00 51 1019.2
20260506184554 23 322 3.2 9.7 0.00 0.00 0.00 51 1019.2
20260506184150 23 252 3.2 9.7 0.00 0.00 0.00 53 1019.2
20260506183550 22 279 1.6 6.4 0.00 0.00 0.00 54 1019.3
20260506183102 22 180 0.0 6.4 0.00 0.00 0.00 54 1019.2
20260506182550 22 0 0.0 4.8 0.00 0.00 0.00 55 1019.3
20260506182050 21 149 0.0 4.8 0.00 0.00 0.00 56 1019.4
20260506181554 21 0 0.0 8.0 0.00 0.00 0.00 58 1019.5
20260506181051 20 0 0.0 8.0 0.00 0.00 0.00 58 1019.4
20260506180551 20 217 3.2 9.7 0.00 0.00 0.00 59 1019.5
20260506180057 20 0 0.0 11.3 0.00 0.00 0.00 60 1019.5
20260506175551 20 327 0.0 11.3 0.00 0.05 0.00 62 1019.5
20260506175050 20 240 0.0 6.4 0.00 0.05 0.00 61 1019.6
20260506174601 20 0 0.0 11.3 0.00 0.05 0.00 62 1019.6
20260506174050 19 263 0.0 11.3 0.00 0.05 0.00 64 1019.6
20260506173550 19 177 0.0 9.7 0.00 0.05 0.00 64 1019.7
20260506173111 18 0 3.2 9.7 0.00 0.05 0.00 66 1019.7
20260506172550 18 273 1.6 12.9 0.00 0.05 0.00 67 1019.8
20260506172048 18 0 3.2 12.9 0.00 0.05 0.00 68 1019.8
20260506171556 18 263 0.0 6.4 0.00 0.05 0.00 68 1019.7
20260506171051 17 0 1.6 6.4 0.00 0.05 0.00 68 1019.7
20260506170553 17 0 1.6 6.4 0.00 0.05 0.00 69 1019.8
20260506170054 17 0 0.0 8.0 0.00 0.05 0.00 71 1019.8
20260506165551 17 246 3.2 11.3 0.00 0.08 0.00 71 1019.8
20260506165048 17 0 0.0 11.3 0.00 0.08 0.00 71 1019.7
20260506164556 16 312 1.6 11.3 0.00 0.08 0.00 73 1019.8
20260506164050 16 0 4.8 11.3 0.00 0.08 0.00 74 1019.8
20260506163550 16 296 1.6 6.4 0.00 0.08 0.00 75 1019.8
20260506163055 15 297 3.2 6.4 0.00 0.08 0.00 76 1019.9
20260506162550 15 0 0.0 6.4 0.00 0.08 0.00 77 1019.9
20260506162050 15 0 1.6 6.4 0.00 0.08 0.00 77 1019.9
20260506161603 14 207 1.6 6.4 0.00 0.08 0.00 78 1019.9
20260506161054 14 207 0.0 9.7 0.00 0.08 0.00 79 1019.9
20260506160550 14 0 1.6 11.3 0.00 0.08 0.00 79 1019.9
20260506160052 14 279 4.8 11.3 0.00 0.08 0.00 79 1019.9
20260506155551 13 0 1.6 6.4 0.00 0.08 0.00 80 1019.9
20260506155048 13 0 1.6 6.4 0.00 0.08 0.00 80 1019.8
20260506154600 13 287 3.2 6.4 0.00 0.08 0.00 81 1020.0
20260506154048 13 291 1.6 9.7 0.00 0.08 0.00 81 1019.9
20260506153551 13 259 1.6 9.7 0.00 0.08 0.00 81 1020.0
20260506153054 13 248 1.6 6.4 0.00 0.08 0.00 82 1019.9
20260506152551 13 0 1.6 6.4 0.00 0.08 0.00 83 1020.0
20260506152054 12 278 0.0 6.4 0.00 0.08 0.00 83 1020.0
20260506151551 12 0 0.0 6.4 0.00 0.08 0.00 83 1020.0
20260506151047 12 0 1.6 6.4 0.00 0.08 0.00 83 1020.0
20260506150550 12 232 0.0 6.4 0.00 0.08 0.00 84 1020.0
20260506145551 12 0 0.0 6.4 0.00 0.08 0.00 84 1020.0
20260506145054 12 211 1.6 6.4 0.00 0.08 0.00 84 1019.9
20260506144603 12 214 0.0 4.8 0.00 0.08 0.00 84 1019.9
20260506144051 12 0 1.6 4.8 0.00 0.08 0.00 84 1019.9
20260506143548 12 262 0.0 3.2 0.00 0.08 0.00 84 1019.9
20260506143056 12 0 0.0 3.2 0.00 0.08 0.00 85 1019.8
20260506142554 12 0 0.0 4.8 0.00 0.08 0.00 85 1019.8
20260506142050 12 0 0.0 4.8 0.00 0.08 0.00 85 1019.7
20260506141550 12 0 0.0 3.2 0.00 0.08 0.00 85 1019.7
20260506141051 12 265 0.0 4.8 0.00 0.08 0.00 85 1019.7
20260506140551 12 263 0.0 4.8 0.00 0.08 0.00 85 1019.6
20260506140110 12 0 0.0 4.8 0.00 0.08 0.00 85 1019.4
20260506135550 12 268 0.0 6.4 0.00 0.08 0.00 86 1019.4
20260506135051 12 275 0.0 6.4 0.00 0.08 0.00 86 1019.5
20260506134553 12 235 0.0 4.8 0.00 0.08 0.00 86 1019.3
20260506134050 11 233 1.6 3.2 0.00 0.08 0.00 86 1019.3
20260506133551 11 0 0.0 3.2 0.00 0.08 0.00 86 1019.3
20260506133116 11 0 0.0 3.2 0.00 0.08 0.00 86 1019.2
20260506132554 11 0 0.0 3.2 0.00 0.08 0.00 86 1019.2
20260506132051 11 0 0.0 1.6 0.00 0.08 0.00 87 1019.2
20260506131555 11 232 0.0 1.6 0.00 0.08 0.00 87 1019.2
20260506131053 11 0 0.0 3.2 0.00 0.08 0.00 87 1019.1
20260506130550 11 0 0.0 3.2 0.00 0.08 0.00 87 1019.0
20260506130136 11 0 0.0 3.2 0.00 0.08 0.00 87 1018.9
20260506125551 11 0 0.0 1.6 0.00 0.08 0.00 87 1018.9
20260506125051 11 0 0.0 1.6 0.00 0.08 0.00 87 1018.9
20260506124554 11 0 0.0 3.2 0.00 0.08 0.00 87 1018.9
20260506124048 11 0 0.0 3.2 0.00 0.08 0.00 87 1018.8
20260506123554 11 232 0.0 3.2 0.00 0.08 0.00 87 1018.8
20260506123052 11 0 0.0 3.2 0.00 0.08 0.00 87 1018.8
20260506122551 11 0 0.0 3.2 0.00 0.08 0.00 87 1018.7
20260506122046 11 0 0.0 3.2 0.00 0.08 0.00 87 1018.8
20260506121555 11 0 0.0 3.2 0.00 0.08 0.00 88 1018.8
20260506121048 11 0 0.0 3.2 0.00 0.08 0.00 88 1018.8
20260506120547 11 0 0.0 3.2 0.00 0.08 0.00 88 1018.7
20260506120055 11 0 0.0 0.0 0.00 0.08 0.00 88 1018.6
20260506115547 11 0 0.0 3.2 0.00 0.08 0.00 88 1018.6
20260506115048 11 0 0.0 3.2 0.00 0.08 0.00 88 1018.6
20260506114550 11 0 0.0 4.8 0.00 0.08 0.00 88 1018.5
20260506114048 11 0 0.0 4.8 0.00 0.08 0.00 88 1018.5
20260506113548 11 0 0.0 4.8 0.00 0.08 0.00 88 1018.5
20260506113054 11 0 0.0 4.8 0.00 0.08 0.00 88 1018.5
20260506112547 11 223 1.6 4.8 0.00 0.08 0.00 88 1018.5
20260506112047 11 0 0.0 3.2 0.00 0.08 0.00 88 1018.4
20260506111555 11 0 0.0 0.0 0.00 0.08 0.00 88 1018.3
20260506111049 11 0 0.0 0.0 0.00 0.08 0.00 87 1018.3
20260506110547 11 0 0.0 0.0 0.00 0.08 0.00 87 1018.2
20260506110053 11 0 0.0 0.0 0.00 0.08 0.00 87 1018.3
20260506105549 11 0 0.0 0.0 0.00 0.15 0.00 87 1018.2
20260506105047 10 0 0.0 0.0 0.00 0.15 0.00 87 1018.2
20260506104559 10 0 0.0 0.0 0.00 0.15 0.00 87 1018.2
20260506104048 10 0 0.0 0.0 0.00 0.15 0.00 87 1018.2
20260506103548 10 0 0.0 0.0 0.00 0.15 0.00 87 1018.3
20260506103054 10 0 0.0 0.0 0.00 0.15 0.00 87 1018.2
20260506102548 10 0 0.0 0.0 0.00 0.15 0.00 87 1018.2
20260506102048 10 0 0.0 3.2 0.00 0.15 0.00 87 1018.3
20260506101553 10 0 0.0 4.8 0.00 0.15 0.00 87 1018.2
20260506101048 10 0 1.6 4.8 0.00 0.15 0.00 87 1018.1
20260506100548 10 274 1.6 4.8 0.00 0.15 0.00 87 1018.1
20260506100107 10 0 1.6 4.8 0.00 0.15 0.00 87 1018.1
20260506095548 10 269 1.6 3.2 0.00 0.15 0.00 87 1018.1
20260506095047 10 267 0.0 3.2 0.00 0.15 0.00 86 1017.9
20260506094600 10 267 0.0 3.2 0.00 0.15 0.00 87 1018.0
20260506094046 10 267 1.6 3.2 0.00 0.15 0.00 87 1018.0
20260506093547 10 0 0.0 1.6 0.00 0.15 0.00 86 1018.0
20260506093052 10 0 0.0 1.6 0.00 0.15 0.00 86 1017.9
20260506092547 10 0 0.0 1.6 0.00 0.15 0.00 86 1018.0
20260506092047 10 0 0.0 0.0 0.00 0.15 0.00 86 1018.0
20260506091551 10 0 0.0 0.0 0.00 0.15 0.00 86 1018.1
20260506091053 10 0 0.0 1.6 0.00 0.15 0.00 86 1018.1
20260506090548 10 0 0.0 1.6 0.00 0.15 0.00 86 1018.2
20260506090051 10 0 0.0 1.6 0.00 0.15 0.00 86 1018.2
20260506085551 10 0 0.0 1.6 0.00 0.15 0.00 86 1018.3
20260506085053 11 0 0.0 0.0 0.00 0.15 0.00 86 1018.3
20260506084554 11 0 0.0 0.0 0.00 0.15 0.00 86 1018.3
20260506084051 11 0 0.0 1.6 0.00 0.15 0.00 86 1018.2
20260506083551 11 0 0.0 1.6 0.00 0.15 0.00 86 1018.2
20260506083058 11 267 0.0 1.6 0.00 0.15 0.00 85 1018.2
20260506082550 11 0 0.0 1.6 0.00 0.15 0.00 85 1018.2
20260506082050 11 0 0.0 1.6 0.00 0.15 0.00 86 1018.3
20260506081605 11 0 0.0 0.0 0.00 0.15 0.00 85 1018.3
20260506081050 11 0 0.0 0.0 0.00 0.15 0.00 85 1018.2
20260506080554 11 0 0.0 0.0 0.00 0.15 0.00 85 1018.2
20260506073053 11 0 0.0 0.0 0.00 0.15 0.00 83 1018.1
20260506072551 11 0 0.0 0.0 0.00 0.15 0.00 83 1018.1
20260506072050 12 0 0.0 0.0 0.00 0.15 0.00 82 1018.0
20260506071555 12 0 0.0 1.6 0.00 0.15 0.00 82 1018.0
20260506071052 12 0 0.0 1.6 0.00 0.15 0.00 81 1018.0
20260506070555 12 0 0.0 0.0 0.00 0.15 0.00 82 1017.9
20260506062050 12 0 1.6 6.4 0.00 0.15 0.15 82 1017.5
20260506061553 12 263 0.0 6.4 0.00 0.15 0.15 81 1017.5
20260506061051 12 268 1.6 6.4 0.00 0.15 0.15 81 1017.4
20260506060554 12 241 0.0 6.4 0.00 0.15 0.15 81 1017.4
20260506051052 13 269 1.6 9.7 0.00 0.15 0.15 79 1016.8
20260506050548 13 224 3.2 11.3 0.00 0.15 0.15 79 1016.6
20260506045052 13 253 3.2 14.5 0.00 0.15 0.15 79 1016.5
20260506044555 13 271 3.2 12.9 0.00 0.15 0.15 79 1016.5
20260506044051 13 281 4.8 12.9 0.00 0.15 0.15 78 1016.5
20260506043551 13 255 4.8 12.9 0.00 0.15 0.15 78 1016.3
20260506043105 13 205 3.2 11.3 0.00 0.15 0.15 78 1016.4
20260506042552 13 243 3.2 11.3 0.00 0.15 0.15 78 1016.3
20260506042051 13 234 3.2 12.9 0.00 0.15 0.15 78 1016.3
20260506041558 13 207 3.2 12.9 0.00 0.15 0.15 78 1016.2
20260506041050 13 276 3.2 11.3 0.00 0.15 0.15 78 1016.2
20260506040550 13 0 4.8 11.3 0.00 0.15 0.15 77 1016.2
20260506040056 13 0 3.2 11.3 0.00 0.15 0.15 77 1016.1
20260506035553 13 268 4.8 11.3 0.00 0.15 0.15 77 1016.0
20260506035048 14 284 1.6 6.4 0.00 0.15 0.15 77 1016.1
20260506034612 14 284 1.6 9.7 0.00 0.15 0.15 77 1016.0
20260506034053 14 271 3.2 9.7 0.00 0.15 0.15 77 1016.0
20260506033550 14 293 1.6 9.7 0.00 0.15 0.15 77 1016.1
20260506033054 14 277 3.2 9.7 0.00 0.15 0.15 77 1015.8
20260506032550 14 274 1.6 9.7 0.00 0.15 0.15 77 1015.8
20260506032051 14 265 3.2 11.3 0.00 0.15 0.15 77 1015.6
20260506031556 14 279 4.8 11.3 0.00 0.15 0.15 76 1015.7
20260506031053 14 281 4.8 9.7 0.00 0.15 0.15 76 1015.7
20260506030547 14 284 1.6 12.9 0.00 0.15 0.15 76 1015.6
20260506030054 14 254 3.2 12.9 0.00 0.15 0.15 75 1015.5
20260506025548 14 261 4.8 12.9 0.00 0.15 0.15 75 1015.5
20260506025048 15 263 4.8 16.1 0.00 0.15 0.15 75 1015.4
20260506024555 15 267 6.4 16.1 0.00 0.15 0.15 75 1015.3
20260506024048 15 281 4.8 16.1 0.00 0.15 0.15 75 1015.3
20260506023548 15 286 6.4 12.9 0.00 0.15 0.15 74 1015.2
20260506023056 15 289 1.6 12.9 0.00 0.15 0.15 74 1015.2
20260506022547 15 284 6.4 12.9 0.00 0.15 0.15 74 1015.2
20260506022047 15 274 8.0 12.9 0.00 0.15 0.15 74 1015.1
20260506021553 15 255 3.2 14.5 0.00 0.15 0.15 74 1015.0
20260506021051 15 281 3.2 14.5 0.00 0.15 0.15 74 1015.0
20260506020548 15 281 8.0 14.5 0.00 0.15 0.15 74 1014.9
20260506020055 15 271 4.8 11.3 0.00 0.15 0.15 74 1014.9
20260506015548 15 259 4.8 11.3 0.00 0.15 0.15 73 1014.8
20260506015050 15 271 6.4 14.5 0.00 0.15 0.15 73 1014.8
20260506014554 15 277 3.2 14.5 0.00 0.15 0.15 73 1014.7
20260506014051 15 243 3.2 11.3 0.00 0.15 0.15 73 1014.6
20260506013552 15 196 3.2 14.5 0.00 0.15 0.15 73 1014.7
20260506013106 15 201 4.8 14.5 0.00 0.15 0.15 73 1014.7
20260506012548 15 215 6.4 14.5 0.00 0.15 0.15 73 1014.8
20260506012050 15 284 9.7 14.5 0.00 0.15 0.15 73 1014.8
20260506011557 16 265 3.2 12.9 0.00 0.15 0.15 73 1014.9
20260506011047 16 255 3.2 12.9 0.00 0.15 0.15 72 1014.9
20260506010548 16 263 4.8 14.5 0.00 0.15 0.15 72 1014.9
20260506010119 16 268 6.4 16.1 0.00 0.15 0.15 72 1014.9
20260506005546 16 275 3.2 16.1 0.00 0.15 0.15 72 1014.8
20260506005047 16 265 6.4 19.3 0.00 0.15 0.15 72 1014.9
20260506004553 16 252 11.3 19.3 0.00 0.15 0.15 71 1014.8
20260506004050 16 302 8.0 14.5 0.00 0.15 0.15 71 1014.7
20260506003549 16 302 6.4 16.1 0.00 0.15 0.15 72 1014.7
20260506003107 16 290 6.4 16.1 0.00 0.15 0.15 72 1014.7
20260506002548 16 284 4.8 12.9 0.00 0.15 0.15 72 1014.7
20260506002048 16 275 6.4 14.5 0.00 0.15 0.15 71 1014.6
20260506001604 16 286 6.4 14.5 0.00 0.15 0.15 71 1014.6
20260506001048 16 269 8.0 14.5 0.00 0.15 0.15 73 1014.5
20260506000547 16 245 6.4 12.9 0.00 0.15 0.15 73 1014.4
20260506000055 16 224 4.8 12.9 0.00 0.15 0.15 73 1014.4
20260505235551 16 258 3.2 12.9 0.00 0.15 0.15 73 1014.4
20260505235055 16 284 6.4 12.9 0.00 0.15 0.15 73 1014.5
20260505234552 16 232 8.0 16.1 0.00 0.15 0.15 73 1014.5
20260505234053 16 281 8.0 16.1 0.00 0.15 0.15 73 1014.5
20260505233550 16 309 8.0 14.5 0.00 0.15 0.15 73 1014.5
20260505233105 16 240 4.8 11.3 0.00 0.15 0.15 74 1014.5
20260505232550 16 296 3.2 11.3 0.00 0.15 0.15 74 1014.5
20260505232051 15 178 3.2 12.9 0.00 0.15 0.15 75 1014.6
20260505231554 15 250 6.4 12.9 0.00 0.15 0.15 75 1014.6
20260505231052 15 269 4.8 11.3 0.00 0.15 0.15 75 1014.7
20260505230551 15 257 4.8 12.9 0.00 0.15 0.15 76 1014.7
20260505230056 15 232 3.2 12.9 0.00 0.15 0.15 76 1014.8
20260505225548 15 253 4.8 14.5 0.00 0.15 0.15 75 1014.8
20260505225049 15 310 8.0 14.5 0.00 0.15 0.15 75 1014.7
20260505224600 15 296 6.4 14.5 0.00 0.15 0.15 76 1014.7
20260505224054 15 233 3.2 11.3 0.00 0.15 0.15 76 1014.7
20260505223551 15 304 4.8 11.3 0.00 0.15 0.15 76 1014.8
20260505223055 15 294 3.2 12.9 0.00 0.15 0.15 77 1014.8
20260505222548 15 261 4.8 12.9 0.00 0.15 0.15 76 1014.8
20260505222051 15 259 3.2 14.5 0.00 0.15 0.15 77 1015.0
20260505221557 15 218 4.8 14.5 0.00 0.15 0.15 76 1014.9
20260505221052 15 243 4.8 14.5 0.00 0.15 0.15 77 1015.0
20260505220547 15 271 6.4 16.1 0.00 0.15 0.15 77 1015.0
20260505220059 15 291 4.8 16.1 0.00 0.15 0.15 78 1015.0
20260505215555 15 293 6.4 16.1 0.00 0.15 0.15 78 1015.0
20260505215048 15 244 4.8 14.5 0.00 0.15 0.15 78 1015.1
20260505214624 14 265 4.8 14.5 0.00 0.15 0.15 79 1015.0
20260505214047 14 316 4.8 14.5 0.00 0.15 0.15 79 1015.1
20260505213554 14 238 4.8 14.5 0.00 0.15 0.15 79 1015.1
20260505213102 14 266 3.2 14.5 0.00 0.15 0.15 79 1015.1
20260505212548 14 275 3.2 14.5 0.00 0.15 0.15 79 1015.1
20260505212051 14 274 4.8 14.5 0.00 0.15 0.15 80 1015.1
20260505211556 14 207 1.6 11.3 0.00 0.15 0.15 81 1015.2
20260505211051 14 0 3.2 11.3 0.00 0.15 0.15 81 1015.1
20260505210550 14 261 3.2 11.3 0.00 0.15 0.15 81 1015.1
20260505210054 14 222 3.2 9.7 0.00 0.15 0.15 82 1015.1
20260505205551 13 0 1.6 9.7 0.00 0.15 0.15 83 1015.1
20260505205049 13 256 3.2 11.3 0.00 0.15 0.15 83 1015.1
20260505204554 13 213 4.8 11.3 0.00 0.15 0.15 84 1015.2
20260505204046 13 250 3.2 12.9 0.00 0.15 0.15 84 1015.2
20260505203547 13 229 4.8 12.9 0.00 0.15 0.15 85 1015.2
20260505203052 13 218 3.2 11.3 0.00 0.15 0.15 85 1015.2
20260505202550 13 242 1.6 11.3 0.00 0.15 0.15 85 1015.3